Wind_Speed
74 70 67 64 59 55 51 50 50 51 49 44 44 47 50 54 58 65 74 80 79 77 69 68 70 66 59 65 66 68 73 76 79 80 82 83 83 85
63 61 55 49 47 47 49 50 49 49 50 42 41 42 43 42 43 45 53 63 72 76 76 78 65 66 66 66 65 67 75 76 80 82 83 85 87 87
46 45 47 50 51 52 54 54 54 53 56 48 45 43 45 45 46 45 40 44 52 70 76 89 77 68 61 60 68 65 68 77 81 84 83 86 88 90
46 49 51 53 56 57 58 57 57 57 58 55 54 49 46 49 50 47 46 44 39 45 58 77 95 94 61 66 68 74 73 77 78 79 79 84 88 89
53 56 58 57 55 52 50 51 51 53 56 59 58 57 52 48 49 49 46 48 43 37 43 49 73 82 78 67 65 72 75 76 83 82 84 81 84 87
58 58 54 51 50 50 48 46 46 47 49 50 54 59 59 55 50 48 48 46 53 46 46 50 47 59 83 90 75 72 74 79 82 85 90 85 80 81
53 48 48 47 47 48 48 47 46 45 45 45 45 52 57 58 56 50 47 49 49 53 53 52 48 45 46 57 73 73 83 79 80 82 85 83 80 77
44 42 42 42 42 43 42 41 40 41 44 45 43 44 51 55 56 51 48 47 49 46 51 54 52 52 44 45 55 53 54 75 82 84 88 87 78 79
41 42 44 44 43 40 40 38 35 35 36 39 39 39 43 50 52 48 46 46 45 45 44 49 52 51 54 55 52 45 48 56 68 72 79 83 85 89
42 44 45 42 40 37 36 30 31 33 33 32 33 35 38 41 44 43 44 41 40 39 41 40 47 47 49 51 51 50 53 54 58 61 65 71 74 75
41 42 43 39 35 33 30 22 21 26 30 30 30 30 31 36 38 39 39 37 35 36 38 37 39 40 44 48 50 52 55 55 57 60 65 66 67 73
37 39 39 36 30 25 25 18 15 17 18 21 23 24 26 30 33 34 35 34 32 32 36 35 37 40 41 43 47 49 51 55 60 63 64 67 71 70
31 33 33 32 28 24 21 17 11 13 14 14 13 17 22 26 28 30 31 31 30 31 35 33 35 39 40 42 46 49 51 54 55 59 64 66 68 69
27 29 30 31 30 25 22 17 9 3 3 7 11 15 18 20 22 24 26 27 26 28 30 25 27 28 30 32 35 39 43 47 51 54 57 60 64 68
24 25 26 29 30 27 22 17 12 6 6 9 11 13 15 16 18 20 21 22 22 24 25 24 25 28 31 35 40 44 44 42 44 49 52 55 57 61
20 21 22 25 26 23 19 15 12 9 10 11 12 14 14 15 16 17 19 21 21 19 15 10 8 9 13 19 30 41 43 38 36 37 46 50 51 55
18 16 17 21 22 20 17 13 9 6 7 8 9 10 11 12 12 14 14 12 10 7 4 3 4 5 7 8 14 23 27 30 29 26 23 30 42 48
16 14 13 15 18 15 13 12 12 11 10 10 10 11 11 10 10 11 10 9 7 5 5 4 3 5 8 9 4 7 11 14 13 16 21 24 27 32
16 14 12 12 12 13 10 8 7 7 7 7 8 9 8 8 8 7 6 6 5 5 4 3 3 3 6 9 4 7 11 14 18 19 19 21 26 28
16 16 13 11 11 10 9 6 4 3 2 1 2 4 4 4 5 6 6 6 6 5 4 4 3 3 4 6 6 2 10 17 18 18 18 20 22 26
18 17 17 14 12 12 10 7 5 5 6 7 7 6 5 6 6 7 7 7 7 6 5 4 4 4 5 5 6 5 5 4 5 11 17 19 20 21
19 18 18 20 17 15 13 11 10 9 8 10 11 12 12 12 11 10 10 9 9 9 8 7 7 6 7 8 7 6 6 7 7 7 6 8 12 18
20 19 18 20 21 22 19 16 14 12 11 12 13 14 15 15 16 16 15 14 14 13 12 12 12 10 10 10 11 11 10 10 10 11 11 10 9 10
Wind_Direction
290 289 288 287 286 283 282 278 278 276 269 263 259 258 260 258 254 250 248 247 245 242 231 228 227 241 238 236 234 228 227 231 231 228 228 229 230 229
290 289 288 285 281 280 278 276 274 273 272 263 258 257 258 259 256 253 248 243 240 234 226 220 223 229 226 226 232 234 226 226 231 229 227 228 229 229
293 290 289 286 283 280 277 274 270 266 266 266 260 253 251 254 254 255 248 246 242 235 228 224 222 222 225 226 224 222 229 226 227 230 230 228 228 229
295 292 289 287 285 283 279 274 269 263 259 258 257 254 247 245 247 251 248 238 241 242 238 231 228 227 228 229 230 226 227 235 233 232 231 233 230 228
300 298 296 293 289 284 278 274 270 264 258 254 252 252 250 244 243 242 243 241 237 232 236 240 234 234 224 226 224 229 231 232 238 235 232 229 230 230
303 301 299 295 291 285 281 275 270 265 262 258 250 249 248 248 241 239 239 240 239 235 229 234 243 238 233 232 230 234 235 234 232 236 233 233 228 229
307 305 305 304 299 292 284 275 266 261 258 256 251 245 244 244 244 238 235 236 237 238 235 231 237 239 238 240 243 247 241 239 235 229 231 234 235 234
311 315 316 310 306 299 294 281 271 261 256 251 251 251 244 241 240 238 236 234 237 241 236 235 236 235 234 232 235 232 233 243 243 242 238 236 238 239
316 315 315 313 307 308 297 285 267 263 258 250 246 249 243 237 236 235 233 235 234 241 239 234 237 237 235 239 236 236 235 241 243 243 245 245 245 241
318 319 319 316 311 309 311 292 265 257 256 251 243 243 239 233 232 229 229 231 231 236 239 236 237 236 237 234 235 241 236 233 235 236 237 241 238 237
322 324 325 323 316 311 319 301 276 259 252 250 243 240 232 223 221 222 225 227 229 232 238 236 237 237 237 239 239 238 237 235 235 239 237 234 233 234
327 331 333 332 326 317 321 311 282 264 250 239 236 234 218 211 213 217 220 223 228 232 235 237 236 241 242 243 244 243 241 238 236 237 238 238 238 234
333 340 343 346 346 338 331 326 297 271 258 249 232 209 200 203 208 212 217 223 229 235 241 239 241 243 244 246 247 247 246 244 240 236 235 235 237 239
338 344 351 356 358 355 356 357 352 319 229 198 181 182 189 197 200 207 217 226 233 237 247 244 243 244 243 242 244 246 245 243 241 238 237 236 235 236
338 344 352 360 3 4 2 11 25 54 113 137 151 164 175 187 197 205 211 216 221 230 242 252 254 256 254 249 247 248 247 245 244 239 236 234 234 234
333 342 352 2 6 8 9 19 42 74 103 120 135 150 162 176 187 196 207 219 226 230 235 241 259 271 265 258 250 246 246 248 244 246 241 236 233 233
323 333 346 360 6 14 26 32 43 67 103 124 140 153 162 173 181 183 182 178 170 168 193 265 293 325 349 318 263 254 247 240 241 241 244 244 243 241
311 317 330 346 359 9 25 39 56 75 93 108 119 125 128 136 144 150 155 157 165 183 217 248 301 349 9 10 335 256 238 227 228 234 234 236 237 235
296 306 310 322 342 354 5 20 38 54 78 101 117 128 140 145 141 145 155 172 191 211 226 255 297 346 11 26 10 232 228 234 241 244 247 246 246 245
297 286 296 300 309 323 335 340 348 352 14 110 145 157 166 172 171 178 188 195 205 223 242 257 280 326 11 24 31 344 251 249 256 259 257 254 253 252
309 289 277 284 288 294 300 297 286 267 262 258 249 240 235 233 232 222 220 221 220 222 235 253 280 305 326 346 11 13 5 347 283 270 265 266 266 265
319 303 284 269 272 276 280 281 268 261 254 251 250 249 247 241 239 246 249 253 250 245 248 258 268 280 299 309 310 316 329 341 344 336 321 283 275 266
321 319 302 282 268 263 264 265 265 260 255 251 249 250 251 251 246 244 249 253 256 260 262 267 271 276 281 285 296 303 305 308 308 313 321 327 316 289
Height
5475 5469 5464 5460 5456 5452 5450 5447 5443 5443 5449 5451 5451 5449 5448 5451 5454 5458 5464 5472 5484 5498 5512 5522 5529 5535 5541 5551 5561 5570 5578 5585 5595 5606 5616 5626 5636 5645
5454 5450 5447 5444 5442 5439 5436 5434 5432 5429 5429 5436 5438 5438 5436 5437 5439 5443 5447 5452 5458 5472 5486 5495 5506 5515 5521 5532 5540 5548 5557 5565 5573 5584 5595 5605 5614 5624
5441 5437 5433 5429 5427 5424 5421 5419 5418 5416 5414 5420 5422 5424 5425 5425 5426 5428 5432 5434 5442 5448 5461 5477 5486 5493 5501 5510 5519 5526 5536 5547 5554 5564 5573 5584 5593 5602
5431 5425 5420 5415 5410 5405 5401 5400 5398 5398 5398 5402 5404 5408 5410 5412 5413 5416 5419 5425 5430 5435 5442 5452 5461 5470 5482 5488 5498 5508 5516 5528 5536 5544 5554 5567 5573 5583
5417 5410 5402 5396 5391 5386 5382 5379 5378 5377 5378 5381 5387 5389 5393 5398 5400 5404 5408 5412 5419 5422 5429 5433 5439 5447 5460 5468 5477 5487 5496 5507 5519 5526 5535 5545 5553 5562
5402 5393 5385 5377 5372 5367 5365 5363 5361 5360 5360 5362 5368 5371 5375 5381 5386 5390 5394 5399 5404 5411 5417 5421 5426 5434 5443 5453 5463 5469 5476 5486 5497 5508 5516 5523 5534 5543
5387 5378 5370 5363 5355 5349 5345 5344 5343 5343 5343 5344 5348 5350 5355 5362 5367 5375 5381 5386 5390 5397 5404 5409 5416 5424 5428 5435 5443 5450 5458 5467 5477 5486 5496 5503 5512 5523
5375 5367 5358 5350 5342 5334 5327 5324 5324 5325 5326 5328 5332 5335 5339 5344 5351 5360 5368 5374 5380 5386 5390 5398 5405 5411 5416 5421 5427 5433 5437 5448 5458 5466 5473 5482 5490 5500
5365 5356 5348 5338 5328 5321 5313 5307 5307 5308 5310 5312 5318 5321 5324 5329 5338 5349 5356 5363 5370 5373 5378 5384 5392 5398 5404 5409 5415 5420 5427 5433 5441 5449 5456 5464 5472 5481
5356 5346 5337 5327 5317 5309 5301 5294 5294 5295 5296 5300 5306 5308 5311 5318 5326 5336 5345 5353 5360 5364 5366 5373 5377 5386 5391 5398 5403 5408 5414 5419 5424 5431 5437 5444 5453 5461
5348 5339 5329 5319 5308 5300 5293 5287 5284 5284 5287 5290 5294 5298 5302 5309 5318 5328 5336 5344 5351 5355 5357 5363 5368 5373 5378 5384 5389 5394 5399 5404 5409 5413 5419 5427 5434 5443
5344 5334 5323 5312 5302 5294 5288 5282 5279 5278 5280 5283 5287 5291 5297 5304 5313 5321 5329 5337 5343 5347 5349 5354 5360 5363 5367 5372 5375 5378 5383 5389 5394 5400 5406 5411 5417 5424
5340 5331 5321 5310 5300 5292 5285 5280 5277 5276 5277 5280 5283 5287 5294 5301 5309 5316 5324 5330 5335 5339 5339 5347 5351 5353 5357 5359 5361 5365 5368 5372 5377 5383 5389 5395 5400 5404
5337 5329 5321 5311 5302 5293 5286 5281 5277 5276 5277 5279 5282 5287 5293 5299 5307 5314 5320 5324 5329 5331 5332 5339 5342 5344 5347 5349 5350 5350 5352 5356 5360 5365 5370 5376 5382 5388
5334 5328 5322 5313 5305 5297 5291 5285 5282 5280 5280 5282 5285 5289 5294 5300 5305 5311 5316 5320 5323 5326 5328 5331 5333 5334 5335 5337 5338 5336 5338 5342 5344 5349 5354 5360 5366 5372
5332 5328 5322 5316 5309 5302 5296 5292 5288 5287 5287 5288 5290 5293 5297 5301 5305 5309 5313 5316 5319 5321 5324 5326 5327 5326 5325 5324 5323 5322 5324 5329 5333 5335 5340 5346 5351 5357
5330 5327 5322 5317 5312 5307 5302 5298 5295 5293 5293 5293 5294 5296 5299 5302 5305 5308 5311 5314 5316 5318 5320 5321 5322 5321 5319 5316 5314 5313 5316 5320 5324 5328 5332 5334 5338 5343
5328 5325 5322 5319 5315 5311 5307 5305 5302 5300 5299 5298 5299 5300 5302 5304 5306 5308 5311 5313 5315 5316 5318 5318 5318 5317 5315 5312 5310 5311 5313 5317 5320 5322 5324 5326 5327 5330
5324 5322 5320 5318 5315 5312 5310 5308 5306 5305 5304 5303 5303 5304 5305 5306 5307 5309 5311 5312 5314 5315 5316 5316 5315 5314 5313 5311 5310 5309 5311 5313 5315 5317 5319 5320 5321 5323
5320 5318 5317 5315 5314 5312 5310 5309 5307 5307 5306 5306 5306 5306 5307 5308 5308 5309 5311 5312 5313 5314 5314 5314 5314 5313 5312 5311 5310 5309 5309 5310 5311 5312 5313 5314 5314 5316
5315 5314 5312 5312 5311 5310 5309 5308 5307 5306 5306 5306 5306 5306 5307 5308 5309 5309 5310 5311 5312 5312 5312 5312 5312 5311 5310 5309 5309 5308 5308 5307 5306 5306 5307 5307 5308 5308
5312 5309 5308 5307 5306 5306 5306 5305 5304 5304 5303 5304 5304 5305 5305 5306 5306 5307 5308 5308 5309 5309 5309 5309 5309 5309 5308 5307 5307 5307 5306 5305 5304 5304 5303 5302 5302 5301
5308 5305 5303 5301 5300 5300 5301 5300 5300 5300 5300 5300 5300 5301 5301 5302 5302 5303 5304 5304 5305 5305 5305 5305 5305 5305 5305 5305 5303 5303 5303 5303 5302 5301 5300 5299 5298 5297